Regional Weather Roundup
Issued by NWS Cleveland, OH

Home | Current Version | Previous Version | Graphics & Text | Print | Product List | Glossary On
Versions: 1 2 3 4 5 6 7 8 9 10 11 12 13 14 15 16 17 18 19 20 21 22 23 24 25 26 27 28 29 30 31 32 33 34 35 36 37 38 39 40 41 42 43 44 45 46 47 48 49 50
000
ASUS41 KCLE 200010
RWRCLE
OHIO REGIONAL WEATHER ROUNDUP
NATIONAL WEATHER SERVICE CLEVELAND, OH
700 PM EST FRI DEC 19 2014

NOTE: "FAIR" INDICATES FEW OR NO CLOUDS BELOW 12,000 FEET WITH NO
SIGNIFICANT WEATHER AND/OR OBSTRUCTIONS TO VISIBILITY.

OHZ001>008-015>018-024>027-034-035-043-044-200100-
   NORTHWEST OHIO

CITY           SKY/WX    TMP DP  RH WIND       PRES   REMARKS
DEFIANCE       CLOUDY    30  22  72 W5        30.33R WCI  25
FINDLAY        CLOUDY    31  22  69 CALM      30.31R
TOLEDO EXPRESS CLOUDY    30  25  81 SW5       30.32R WCI  25
TOLEDO EXEC    CLOUDY    30  25  81 CALM      30.33R
LIMA           CLOUDY    32  23  69 NW6       30.30R WCI  26
$$

OHZ009>014-019>023-028>033-038-089-200100-
   NORTHEAST OHIO

CITY           SKY/WX    TMP DP  RH WIND       PRES   REMARKS
CLE-HOPKINS    CLOUDY    29  21  72 W6        30.32R WCI  23
CLE-LAKEFRONT  CLOUDY    31  21  66 W12       30.30R WCI  22
CUY CO. ARPT   CLOUDY    32  23  69 W10       30.29R WCI  24
LORAIN-ELYRIA  CLOUDY    29  22  75 W5        30.31R WCI  24
ASHTABULA      CLOUDY    29  19  66 W6        30.27R WCI  23
AKRON-CANTON   CLOUDY    30  21  69 NW6       30.26R WCI  24
WOOSTER        CLOUDY    29  22  75 NW3       30.28R
MANSFIELD      CLOUDY    28  22  78 W3        30.28R
YOUNGSTOWN     CLOUDY    29  21  72 NW8       30.25R WCI  21
$$

OHZ042-051>053-060>062-070>072-077>081-200100-
  SOUTHWEST OHIO

CITY           SKY/WX    TMP DP  RH WIND       PRES   REMARKS
CINC-COVINGTON CLOUDY    30  19  63 NW5       30.28F WCI  25
CINC-LUNKEN    CLOUDY    31  22  69 E3        30.32F
HAMILTON       CLOUDY    31  23  72 CALM      30.31F
DAYTON         CLOUDY    31  22  69 W3        30.30F
WRIGHT-PAT AFB CLOUDY    30  23  74 N5        30.30F WCI  26
DAYTON GENERAL CLOUDY    30  22  72 NE3       30.28F
WILMINGTON     CLOUDY    29  22  75 NE7       30.28F WCI  22
$$

OHZ036-037-039>041-045>050-054>059-063>069-073>076-082>088-200100-
  CENTRAL AND SOUTHEAST OHIO

CITY           SKY/WX    TMP DP  RH WIND       PRES   REMARKS
COLUMBUS       CLOUDY    30  22  72 W5        30.31R WCI  25
OSU AIRPORT    CLOUDY    30  23  75 N5        30.30R WCI  25
BOLTON FIELD   CLOUDY    30  24  78 MISG      30.31R
RICKENBACK AFB CLOUDY    30  23  75 CALM      30.31R
NEWARK         CLOUDY    31  23  72 W5        30.30R WCI  26
MARION         CLOUDY    29  22  75 NW5       30.31R WCI  24
LANCASTER      CLOUDY    40  23  50 CALM      30.31R
ZANESVILLE     CLOUDY    30  24  78 W3        30.29R
NEW PHILLY     CLOUDY    31  23  72 W5        30.29R WCI  26
$$



USA.gov is the U.S. government's official web portal to all federal, state and local government web resources and services.